GW3154 Weather Reports


Display with metric or nautical units.
time (UTC)temp
F
wind
direction
speed
MPH
gust
MPH
rain 1hr
in
rain 24hr
in
rain mn
in
humidity
%
barometer
mb
20260507205916 69 322 0.0 0.0 0.00 0.00 0.00 52 1019.9
20260507204412 70 61 0.0 0.0 0.00 0.00 0.00 52 1020.2
20260507202910 69 173 1.0 1.0 0.00 0.00 0.00 55 1020.5
20260507201409 68 159 1.0 1.0 0.00 0.00 0.00 57 1020.7
20260507195910 68 312 2.0 3.0 0.00 0.00 0.00 60 1020.7
20260507194407 67 298 2.0 2.0 0.00 0.00 0.00 58 1021.0
20260507192902 65 167 3.0 3.0 0.00 0.00 0.00 62 1021.0
20260507191357 66 101 0.0 0.0 0.00 0.00 0.00 64 1021.2
20260507185856 67 127 0.0 0.0 0.00 0.00 0.00 60 1021.2
20260507184353 67 224 0.0 0.0 0.00 0.00 0.00 62 1021.3
20260507182850 64 7 1.0 1.0 0.00 0.00 0.00 65 1021.5
20260507181349 62 24 0.0 2.0 0.00 0.00 0.00 71 1021.6
20260507175845 64 324 2.0 3.0 0.00 0.00 0.00 67 1021.7
20260507174343 62 186 0.0 0.0 0.00 0.00 0.00 69 1021.8
20260507172839 64 38 1.0 2.0 0.00 0.00 0.00 66 1021.8
20260507171335 61 58 0.0 0.0 0.00 0.00 0.00 71 1021.8
20260507165830 63 354 2.0 2.0 0.00 0.00 0.00 67 1021.6
20260507164330 61 124 0.0 1.0 0.00 0.00 0.00 71 1021.7
20260507162827 59 293 1.0 1.0 0.00 0.00 0.00 74 1021.9
20260507161322 58 11 1.0 2.0 0.00 0.00 0.00 77 1021.8
20260507155817 57 62 0.0 1.0 0.00 0.00 0.00 76 1021.8
20260507154313 56 36 2.0 2.0 0.00 0.00 0.00 78 1022.1
20260507152808 56 91 0.0 1.0 0.00 0.00 0.00 79 1021.7
20260507151309 55 75 1.0 2.0 0.00 0.00 0.00 79 1022.0
20260507145804 55 68 0.0 1.0 0.00 0.00 0.00 80 1022.1
20260507144301 55 45 0.0 0.0 0.00 0.00 0.00 81 1021.9
20260507142757 55 37 0.0 1.0 0.00 0.00 0.00 81 1021.9
20260507141253 54 61 0.0 0.0 0.00 0.00 0.00 82 1021.8
20260507135749 54 55 0.0 0.0 0.00 0.00 0.00 83 1021.7
20260507134246 53 238 0.0 0.0 0.00 0.00 0.00 83 1021.4
20260507132742 53 56 0.0 0.0 0.00 0.00 0.00 84 1021.5
20260507131238 54 73 0.0 1.0 0.00 0.00 0.00 84 1021.6
20260507125737 54 83 0.0 0.0 0.00 0.00 0.00 85 1021.8
20260507124233 54 48 0.0 0.0 0.00 0.00 0.00 87 1021.8
20260507122730 54 243 1.0 1.0 0.00 0.00 0.00 87 1021.8
20260507121230 54 23 1.0 2.0 0.00 0.00 0.00 88 1021.8
20260507115725 54 22 0.0 0.0 0.00 0.00 0.00 88 1022.0
20260507114220 54 53 0.0 0.0 0.00 0.00 0.00 89 1021.9
20260507112718 54 53 0.0 0.0 0.00 0.00 0.00 88 1022.0
20260507111215 54 60 0.0 0.0 0.00 0.00 0.00 88 1022.2
20260507105710 54 86 0.0 0.0 0.00 0.00 0.00 88 1022.2
20260507104206 54 38 0.0 0.0 0.00 0.00 0.00 88 1022.2
20260507102701 54 27 0.0 0.0 0.00 0.00 0.00 88 1022.2
20260507101200 54 308 0.0 1.0 0.00 0.00 0.00 88 1022.4
20260507095700 54 21 0.0 0.0 0.00 0.00 0.00 87 1022.4
20260507094155 54 317 0.0 0.0 0.00 0.00 0.00 87 1022.5
20260507092654 54 319 0.0 0.0 0.00 0.00 0.00 87 1022.7
20260507091149 54 334 0.0 0.0 0.00 0.00 0.00 87 1022.7
20260507085645 54 284 0.0 0.0 0.00 0.00 0.00 86 1022.9
20260507084141 54 231 0.0 1.0 0.00 0.00 0.00 86 1022.8
20260507082637 54 39 0.0 0.0 0.00 0.00 0.00 86 1022.8
20260507081137 54 208 0.0 0.0 0.00 0.00 0.00 86 1022.8
20260507075636 54 253 1.0 1.0 0.00 0.00 0.00 85 1022.9
20260507074134 54 292 0.0 1.0 0.00 0.00 0.00 86 1022.9
20260507072630 54 221 0.0 0.0 0.00 0.00 0.00 85 1022.9
20260507071126 54 200 0.0 0.0 0.00 0.00 0.00 85 1022.8
20260507065621 54 77 0.0 0.0 0.00 0.00 0.00 86 1022.7
20260507064121 54 267 0.0 0.0 0.00 0.00 0.00 85 1022.8
20260507062617 54 328 0.0 1.0 0.00 0.00 0.00 86 1023.0
20260507061116 54 323 1.0 1.0 0.00 0.00 0.00 86 1022.9
20260507055611 53 242 0.0 0.0 0.00 0.00 0.00 87 1022.9
20260507054107 53 336 0.0 0.0 0.00 0.00 0.00 86 1022.8
20260507052607 53 191 0.0 0.0 0.00 0.00 0.00 86 1022.9
20260507051103 54 311 3.0 5.0 0.00 0.00 0.00 85 1022.9
20260507045559 54 281 2.0 3.0 0.00 0.00 0.00 85 1022.8
20260507044055 54 181 0.0 0.0 0.00 0.00 0.00 85 1022.7
20260507042550 54 59 0.0 0.0 0.00 0.00 0.00 86 1022.6
20260507041046 55 63 0.0 0.0 0.00 0.00 0.00 85 1022.3
20260507035546 56 199 0.0 0.0 0.00 0.00 0.00 84 1022.2
20260507034043 57 261 0.0 0.0 0.00 0.00 0.00 83 1021.9
20260507032541 57 272 1.0 2.0 0.00 0.00 0.00 81 1021.9
20260507031037 59 302 1.0 1.0 0.00 0.00 0.00 79 1021.6
20260507025534 60 186 0.0 0.0 0.00 0.00 0.00 77 1021.5
20260507024032 61 315 1.0 2.0 0.00 0.00 0.00 76 1021.4
20260507022528 62 331 0.0 0.0 0.00 0.00 0.00 74 1021.2
20260507021027 63 94 1.0 2.0 0.00 0.00 0.00 72 1021.3
20260507015526 64 269 1.0 2.0 0.00 0.00 0.00 71 1021.4
20260507014021 65 280 2.0 2.0 0.00 0.00 0.00 70 1021.4
20260507012518 67 150 1.0 2.0 0.00 0.00 0.00 67 1021.4
20260507011013 69 7 0.0 1.0 0.00 0.00 0.00 64 1021.3
20260507005508 71 60 1.0 2.0 0.00 0.00 0.00 62 1021.2
20260507004005 72 64 2.0 3.0 0.00 0.00 0.00 61 1021.2
20260507002504 73 3 1.0 1.0 0.00 0.00 0.00 59 1021.1
20260507001000 72 51 1.0 2.0 0.00 0.00 0.00 63 1021.1
20260506235455 72 142 1.0 1.0 0.00 0.00 0.00 61 1020.8
20260506233952 75 71 1.0 2.0 0.00 0.00 0.00 57 1020.9
20260506232447 71 185 1.0 1.0 0.00 0.00 0.00 61 1020.9
20260506230943 72 196 0.0 0.0 0.00 0.00 0.00 63 1021.2
20260506225440 73 168 1.0 2.0 0.00 0.00 0.00 61 1021.1
20260506223936 73 191 0.0 1.0 0.00 0.00 0.00 59 1021.2
20260506222431 73 193 1.0 1.0 0.00 0.00 0.00 63 1021.4
20260506220929 72 191 0.0 1.0 0.00 0.00 0.00 65 1021.6
20260506215429 71 159 0.0 1.0 0.00 0.00 0.00 62 1021.8
20260506213926 70 174 2.0 2.0 0.00 0.00 0.00 65 1021.6
20260506212421 69 183 2.0 2.0 0.00 0.00 0.00 69 1021.8
20260506210920 69 181 2.0 2.0 0.00 0.00 0.00 70 1021.9